Weather Service Report


255 
ASUS46 KSTO 311209
RWRCA 

NORTHERN AND CENTRAL CA REGIONAL WEATHER ROUNDUP
NATIONAL WEATHER SERVICE SACRAMENTO CA 
500 AM PDT THU JUL 31 2014

NOTE: FAIR INDICATES FEW OR NO CLOUDS BELOW 12,000 FEET WITH NO
SIGNIFICANT WEATHER AND/OR OBSTRUCTIONS TO VISIBILITY.

CAZ001-003-311300-
NORTHWEST AREA
  
CITY           SKY/WX    TMP DP  RH WIND       PRES   REMARKS
CRESCENT CITY  FOG       55  55 100 CALM      29.99S VSB 3/4          
ARCATA         NOT AVBL                                               
SHELTER COVE   NOT AVBL                                               
UKIAH          CLEAR     61  45  55 CALM      29.94S                  
$$

CAZ006-505>513-311300-
BAY AREA
  
CITY           SKY/WX    TMP DP  RH WIND       PRES   REMARKS
SANTA ROSA     CLOUDY    55  54  96 CALM      29.95R FOG              
SAN RAFAEL     N/A       58  MM  MM MISG
NAPA           CLOUDY    56  56 100 W6        29.95R                  
CONCORD        CLEAR     59  54  83 NW6       29.92S                  
OAKLAND CITY   N/A       59  MM  MM MISG
OAKLAND        CLOUDY    60  55  83 N5        29.97S                  
SAN FRAN CITY  N/A       57  MM  97 MISG
SAN FRAN ARPT  MOCLDY    58  56  93 W9        29.97R                  
LIVERMORE      CLEAR     63  55  75 NW7       29.94R                  
HAYWARD        CLOUDY    61  59  93 CALM      29.96S                  
REDWOOD CITY   N/A       MM  MM  MM MISG
MOFFETT ARPT   CLOUDY    63  59  87 N3        29.97S                  
SAN JOSE ARPT  PTCLDY    61  59  93 SW3       29.96S                  
$$
CAZ034-037-514>518-311300-
CENTRAL COAST
  
CITY           SKY/WX    TMP DP  RH WIND       PRES   REMARKS
WATSONVILLE    CLOUDY    61  58  90 NE5       29.98S FOG              
SALINAS        CLOUDY    59  57  93 CALM      29.98S                  
MONTEREY       CLOUDY    57  56  96 CALM      29.99S                  
PT PIEDRAS BLS NOT AVBL                                               
SAN LUIS OBISP CLOUDY    60  59  96 NW6       29.96F                  
SANTA MARIA    FOG       61  57  88 W5        29.97S VSB 1/4          
$$
CAZ015-016-311300-
NORTHERN SACRAMENTO VALLEY
  
CITY           SKY/WX    TMP DP  RH WIND       PRES   REMARKS
REDDING        CLEAR     75  55  49 CALM      29.89S                  
RED BLUFF      CLEAR     75  54  47 N3        29.90R                  
OROVILLE       CLEAR     76  54  46 E3        29.90S                  
$$
CAZ016>018-311300-
SOUTHERN SACRAMENTO VALLEY
  
CITY           SKY/WX    TMP DP  RH WIND       PRES   REMARKS
AUBURN         CLEAR     81  50  34 E9        29.95S                  
BEALE AFB      CLEAR     71  55  58 CALM      29.89R                  
LINCOLN        FAIR      70  52  52 SE5       29.88R                  
MARYSVILLE     CLEAR     67  57  70 SW3       29.89R                  
SAC INTL ARPT  PTCLDY    64  56  75 S6        29.87R                  
MATHER AIRPORT PTCLDY    68  54  60 SW7       29.88S                  
DOWNTOWN SAC   N/A       69  MM  MM MISG
SAC EXEC ARPT  CLEAR     66  56  70 S5        29.88S                  
VACAVILLE      CLEAR     64  53  67 S6        29.88S                  
TRAVIS AFB     CLEAR     60  59  99 SW20G28   29.86S                  
$$
CAZ019>021-311300-
SAN JOAQUIN VALLEY
  
CITY           SKY/WX    TMP DP  RH WIND       PRES   REMARKS
STOCKTON       CLEAR     69  56  62 NE5       29.89R                  
MODESTO        CLEAR     74  55  51 NW3       29.88R                  
MERCED         CLEAR     72  57  59 CALM      29.88S                  
LEMOORE        PTCLDY    75  51  43 W10       29.89R                  
FRESNO         PTCLDY    79  62  56 W3        29.89S                  
HANFORD        PTCLDY    77  58  51 CALM      29.89S                  
PORTERVILLE    CLEAR     75  55  50 CALM      29.91S                  
BAKERSFIELD    CLEAR     83  52  34 CALM      29.90S                  
$$
CAZ011-012-071-311300-
NORTHERN MOUNTAINS
  
CITY           SKY/WX    TMP DP  RH WIND       PRES   REMARKS
YREKA          CLEAR     60  48  64 CALM      30.10R                  
MOUNT SHASTA   CLEAR     56  44  64 CALM      30.12S                  
ALTURAS        CLEAR     54  42  64 CALM      30.19S                  
$$
CAZ011-012-071-311300-
SIERRA NEVADA MTNS
  
CITY           SKY/WX    TMP DP  RH WIND       PRES   REMARKS
BLUE CANYON    CLEAR     73  39  29 VRB6      30.24S                  
TRUCKEE        FOG       43  43 100 CALM      30.32S VSB 1/4          
TAHOE VLY ARPT CLEAR     49  43  80 VRB3      30.32S                  
MAMMOTH LAKES  FAIR      50  46  87 CALM      30.38S                  
$$
  

Return to Home page


Western Regional Climate Center, wrcc@dri.edu